Regional Weather Roundup
Issued by NWS

Home | Current Version | Previous Version | Text Only | Print | Product List | Glossary Off
Versions: 1 2 3 4 5 6 7 8 9 10 11 12 13 14 15 16 17 18 19 20 21 22 23 24 25 26 27

011
ASUS45 KBOI 211110
RWRID

IDAHO REGIONAL WEATHER ROUNDUP
NATIONAL WEATHER SERVICE BOISE ID
500 AM MDT THU MAY 21 2015

NOTE: "FAIR" INDICATES FEW OR NO CLOUDS BELOW 12000 FEET
WITH NO SIGNIFICANT WEATHER AND/OR OBSTRUCTIONS TO VISIBILITY

IDZ012-014-211200-
SOUTHWEST IDAHO


CITY           SKY/WX    TMP DP  RH WIND       PRES   REMARKS
BOISE          PTCLDY    54  47  77 SE8       29.92F
CALDWELL       PTCLDY    54  43  66 S8        29.93S
MOUNTAIN HOME  PTCLDY    50  47  89 SE5       29.93S
$$

IDZ016-017-211200-
SOUTHCENTRAL IDAHO


CITY           SKY/WX    TMP DP  RH WIND       PRES   REMARKS
BURLEY         CLOUDY    48  45  89 CALM      29.97F
JEROME         PTCLDY    49  44  83 E10       29.97F
TWIN FALLS     CLOUDY    50  43  77 S3        29.95R
$$

IDZ019>023-211200-
SOUTHEAST IDAHO


CITY           SKY/WX    TMP DP  RH WIND       PRES   REMARKS
IDAHO FALLS    CLOUDY    47  45  93 CALM      30.05S
POCATELLO      CLEAR     48  45  89 E3        30.03F
REXBURG        CLOUDY    48  45  89 NE5       30.06S
$$

IDZ006-010-011-018-031-032-211200-
CENTRAL IDAHO MOUNTAINS


CITY           SKY/WX    TMP DP  RH WIND       PRES   REMARKS
MCCALL         CLOUDY    48  45  89 N3        29.98R
HAILEY         DRIZZLE   46  46 100 NW3       30.04S
STANLEY          N/A     39  37  92 CALM      30.05S
SALMON         CLOUDY    52  43  71 CALM      29.99S
CHALLIS        CLOUDY    49  42  77 NW3       30.01S
$$

IDZ002-004-006-007-026-211200-
NORTHERN IDAHO


CITY           SKY/WX    TMP DP  RH WIND       PRES   REMARKS
LEWISTON       PTCLDY    60  51  72 E5        29.88R
LOWELL           N/A     48  45  89 N3        29.95R
COEUR D`ALENE  MOCLDY   N/A N/A N/A MISG        N/A
MULLAN PASS    PTCLDY    47  30  51 SE9       30.03S
$$



USA.gov is the U.S. government's official web portal to all federal, state and local government web resources and services.